Location: Babice
(50.3480°N, 22.9363°E)
Time: 12:23:51
(UTC+00:00)

Cosmos 1908 Rocket - Pass Details

Date: 14 July 2020
Orbit: 605 x 633 km, 82.5° (Epoch: 07 August)

Event Time Altitude Azimuth Distance (km) Brightness Sun altitude
Exits shadow 01:28:44 - 181° (S) 2,528 6.2 -8.4°
Reaches altitude 10° 01:30:01 10° 180° (S) 2,013 5.7 -8.2°
Maximum altitude 01:34:27 71° 98° (E) 673 3.9 -7.8°
Drops below altitude 10° 01:38:56 10° 14° (NNE) 2,023 7.3 -7.3°
Sets 01:41:11 0° 12° (NNE) 2,932 8.2 -7.0°
